TimeCDT,TemperatureF,Dew PointF,Humidity,Sea Level PressureIn,VisibilityMPH,Wind Direction,Wind SpeedMPH,Gust SpeedMPH,PrecipitationIn,Events,Conditions,WindDirDegrees,DateUTC
12:53 AM,43.0,32.0,65,30.25,10.0,North,6.9,-,N/A,,Clear,350,2012-10-27 05:53:00
1:53 AM,41.0,32.0,70,30.24,10.0,NNW,5.8,-,N/A,,Clear,340,2012-10-27 06:53:00
2:53 AM,41.0,30.9,67,30.22,10.0,North,8.1,-,N/A,,Clear,350,2012-10-27 07:53:00
3:53 AM,39.9,30.9,70,30.20,10.0,North,6.9,-,N/A,,Clear,350,2012-10-27 08:53:00
4:53 AM,39.9,30.0,68,30.21,10.0,North,8.1,-,N/A,,Clear,360,2012-10-27 09:53:00
5:53 AM,39.0,30.0,70,30.22,10.0,North,9.2,-,N/A,,Clear,350,2012-10-27 10:53:00
6:53 AM,37.9,30.0,73,30.23,10.0,North,6.9,-,N/A,,Clear,350,2012-10-27 11:53:00
7:53 AM,37.9,30.0,73,30.24,10.0,NNW,9.2,-,N/A,,Clear,340,2012-10-27 12:53:00
8:53 AM,42.1,30.9,65,30.25,10.0,North,10.4,16.1,N/A,,Clear,350,2012-10-27 13:53:00
9:53 AM,45.0,32.0,60,30.25,10.0,North,11.5,23.0,N/A,,Clear,10,2012-10-27 14:53:00
10:53 AM,48.0,33.1,56,30.25,10.0,NNE,13.8,20.7,N/A,,Clear,20,2012-10-27 15:53:00
11:53 AM,51.1,34.0,52,30.22,10.0,North,15.0,19.6,N/A,,Clear,10,2012-10-27 16:53:00
12:53 PM,54.0,32.0,43,30.19,10.0,North,10.4,21.9,N/A,,Clear,360,2012-10-27 17:53:00
1:53 PM,54.0,33.1,45,30.16,10.0,North,17.3,-,N/A,,Clear,10,2012-10-27 18:53:00
2:53 PM,55.0,30.9,40,30.16,10.0,North,10.4,17.3,N/A,,Clear,360,2012-10-27 19:53:00
3:53 PM,57.0,30.9,37,30.14,10.0,North,10.4,-,N/A,,Clear,350,2012-10-27 20:53:00
4:53 PM,57.0,28.9,34,30.13,10.0,North,10.4,16.1,N/A,,Clear,360,2012-10-27 21:53:00
5:53 PM,54.0,28.9,38,30.14,10.0,NNE,6.9,-,N/A,,Clear,20,2012-10-27 22:53:00
6:53 PM,51.1,30.0,44,30.15,10.0,North,5.8,-,N/A,,Clear,360,2012-10-27 23:53:00
7:53 PM,50.0,30.9,48,30.16,10.0,NNE,8.1,-,N/A,,Clear,30,2012-10-28 00:53:00
8:53 PM,48.0,32.0,54,30.16,10.0,NE,9.2,-,N/A,,Clear,40,2012-10-28 01:53:00
9:53 PM,46.9,32.0,56,30.18,10.0,NNE,9.2,-,N/A,,Clear,30,2012-10-28 02:53:00
10:53 PM,44.6,32.0,61,30.19,10.0,North,5.8,-,N/A,,Clear,10,2012-10-28 03:53:00
11:53 PM,45.0,32.0,60,30.19,10.0,North,6.9,-,N/A,,Clear,10,2012-10-28 04:53:00